sat.trackr.live / text

‹ back to catalog

YAOGAN-31 02C

NORAD 47536 · 2021-007E

PAYLOAD ACTIVE UNKNOWN

§ Identity

Operator
Country
PRC
Launch date
2021-01-29
Launch site
JSC
Launch vehicle
Mass (kg)
RCS (m²)

External: N2YO · Heavens-Above · Gunter

§ Orbital elements

Epoch: 2026-09-20T23:56:05.462880Z

Period
107.03 min
Inclination
63.4013°
Eccentricity
0.0184402
Mean motion
13.45451624 rev/d
Perigee alt
951.3 km
Apogee alt
1,226.7 km
Semi-major
7,467.2 km
B*
5.3071e-5
RAAN
255.8986°
Arg perigee
0.9653°
Mean anomaly
359.1694°
Rev number
27,710

§ Raw data

YAOGAN-31 02C1 47536U 21007E   26263.99728545 -.00000055  00000+0  53071-4 0  99932 47536  63.4013 255.8986 0184402   0.9653 359.1694 13.45451624277108

JSON: /api/v1/satellites/47536 · /tle

For live sub-satellite position, see the globe view (requires WebGL).

§ Visibility from observer

Set your observer location to see the next 7 days of passes ≥ 10°. The values pass through the URL so the page stays shareable.

No JS? Fill the form by hand. The geolocation button needs JavaScript.